CAPE
0 0 0 0 0 0 0 0 0 0 0 0 0 0 0 0 0 0 0 0 0 0 0 0 0 0 0 0 0 0 0 0 0 0 0 0 0 0 0 0 0 0 0
0 0 0 0 0 0 0 0 0 0 0 0 0 0 0 0 0 0 0 0 0 0 0 0 0 0 0 0 0 0 0 0 0 0 0 0 0 0 0 0 0 0 0
0 0 0 0 0 0 0 0 0 0 0 0 0 0 0 0 0 0 0 0 0 0 0 0 0 0 0 0 0 0 0 0 0 0 0 0 0 0 0 0 0 0 0
0 0 0 0 0 0 0 0 0 0 0 0 0 0 0 0 0 0 0 0 0 0 0 0 0 0 0 0 0 0 0 0 0 0 0 0 0 0 0 0 0 0 0
0 0 0 0 0 0 0 0 0 0 0 0 0 0 0 0 0 0 0 0 0 0 0 0 0 0 0 0 0 0 0 0 0 0 0 0 0 0 0 0 0 0 0
0 0 0 0 0 0 0 0 0 0 0 0 0 0 0 0 0 0 0 0 0 0 0 0 0 0 0 0 0 0 0 0 1 0 0 0 0 0 0 0 0 0 0
0 0 0 0 0 0 0 0 0 0 0 0 0 0 0 0 0 0 0 0 0 0 0 0 0 0 0 0 0 1 0 0 0 0 0 0 1 0 0 0 0 0 0
0 0 0 0 0 0 0 0 0 0 0 0 0 0 0 0 0 0 0 0 0 0 0 0 0 0 0 0 0 0 0 1 3 4 8 3 3 2 1 0 0 0 1
0 0 0 0 0 0 0 0 0 0 0 0 0 0 0 0 0 1 3 0 0 0 0 0 0 0 0 0 0 0 0 0 0 0 0 0 0 0 1 9 5 4 2
0 0 0 0 0 0 0 0 0 1 1 0 0 1 4 3 0 0 0 3 0 0 0 0 0 1 0 0 0 0 0 0 0 0 0 0 0 0 0 0 0 5 4
0 0 1 1 0 1 1 2 1 2 2 2 0 1 2 6 5 12 2 4 2 8 7 1 1 3 4 6 5 4 2 4 1 0 0 0 0 0 0 0 0 2 2
0 0 0 0 0 1 0 1 5 1 0 0 0 4 2 3 2 2 5 5 7 8 6 4 1 0 2 1 2 6 9 6 3 0 0 0 0 0 0 2 2 3 12
0 0 0 0 0 0 1 0 2 1 0 3 0 0 0 0 3 3 2 1 4 1 5 5 5 15 16 10 2 4 5 7 6 7 7 4 2 4 6 7 4 7 5
0 0 0 0 0 1 0 0 0 3 4 5 4 1 1 1 2 5 2 1 2 2 1 0 0 0 0 0 0 0 0 0 3 16 12 4 3 7 8 19 23 20 18
0 0 0 0 0 0 0 0 0 1 1 3 3 0 1 2 0 1 1 0 0 1 1 0 0 0 0 0 0 0 0 0 1 1 1 5 15 14 15 22 17 18 6
0 0 0 0 0 0 0 0 0 0 0 0 1 1 0 2 1 2 1 1 1 1 0 0 0 0 0 0 1 1 0 0 0 1 1 3 3 5 17 14 6 2 5
0 0 0 0 0 0 0 0 0 0 0 0 0 0 0 0 0 0 0 0 0 0 0 0 0 0 0 1 1 1 2 2 2 2 1 2 2 2 3 5 17 19 9
0 0 0 0 0 0 0 0 0 0 0 0 0 0 0 0 0 0 0 0 0 0 0 0 1 1 0 1 2 1 1 1 2 1 1 0 1 1 2 2 2 4 13
0 0 0 0 0 0 0 0 0 0 0 0 0 0 0 0 0 0 0 0 0 0 0 0 0 0 3 4 5 5 3 3 2 3 1 1 1 3 1 1 2 3 3
0 0 0 0 0 0 0 0 0 0 0 0 0 0 0 0 0 0 0 0 0 0 0 0 0 0 1 3 4 2 2 3 2 2 3 2 1 1 3 3 3 3 2
0 0 0 0 0 0 0 0 0 0 0 0 0 0 0 0 0 0 0 0 0 0 0 0 0 0 1 3 5 4 4 0 3 1 3 7 3 3 2 3 3 4 2
0 0 0 0 0 0 0 0 0 0 0 0 0 0 0 0 0 0 0 0 0 0 0 0 0 0 0 2 3 2 5 4 2 3 1 8 6 5 2 5 5 4 2
0 0 0 0 0 0 0 0 0 0 0 0 0 0 0 0 0 0 0 0 0 0 0 0 0 0 0 1 2 5 8 5 8 10 12 8 10 10 2 4 4 4 5
0 0 0 0 0 0 0 0 0 0 0 0 0 0 0 0 0 0 0 0 0 0 0 0 0 0 0 0 1 3 9 9 7 11 15 9 5 13 5 4 4 3 5
0 0 0 0 0 0 0 0 0 0 0 0 0 0 0 0 0 0 0 0 0 0 0 0 1 2 1 1 1 3 6 7 1 12 28 12 7 9 5 5 6 7 4
0 0 0 0 0 0 0 0 0 0 0 0 0 0 0 0 0 0 0 0 0 0 0 1 1 2 1 1 5 8 8 10 9 20 31 18 16 7 6 8 10 4 3
CIN
-0 -0 -0 -0 -0 -0 -0 -0 -0 -0 -0 -0 -0 -0 -0 -0 -0 -0 -0 -0 -0 -0 -0 -0 -0 -0 -0 -0 -0 -0 -0 -0 -0 -0 -0 -0 -0 -0 -0 -0 -0 -0 -0
-0 -0 -0 -0 -0 -0 -0 -0 -0 -0 -0 -0 -0 -0 -0 -0 -0 -0 -0 -0 -0 -0 -0 -0 -0 -0 -0 -0 -0 -0 -0 -0 -0 -0 -0 -0 -0 -0 -0 -0 -0 -0 -0
-0 -0 -0 -0 -0 -0 -0 -0 -0 -0 -0 -0 -0 -0 -0 -0 -0 -0 -0 -0 -0 -0 -0 -0 -0 -0 -0 -0 -0 -0 -0 -0 -0 -0 -0 -0 -0 -0 -0 -0 -0 -0 -0
-0 -0 -0 -0 -0 -0 -0 -0 -0 -0 -0 -0 -0 -0 -0 -0 -0 -0 -0 -0 -0 -0 -0 -0 -0 -0 -0 -0 -0 -0 -0 -0 -0 -0 -0 -0 -0 -0 -0 -0 -0 -0 -0
-0 -0 -0 -0 -0 -0 -0 -0 -0 -0 -0 -0 -0 -0 -0 -0 -0 -0 -0 -0 -0 -0 -0 -0 -0 -0 -0 -0 -0 -0 -0 -0 -0 -0 -0 -0 -0 -0 -0 -0 -0 -0 -0
-0 -0 -0 -0 -0 -0 -0 -0 -0 -0 -0 -0 -0 -0 -0 -0 -0 -0 -0 -0 -0 -0 -0 -0 -0 -0 -0 -0 -0 -0 -0 -0 -0 -0 -0 -0 -0 -0 -0 -0 -0 -0 -0
-0 -0 -0 -0 -0 -0 -0 -0 -0 -0 -0 -0 -0 -0 -0 -0 -0 -0 -0 -0 -0 -0 -0 -0 -0 -0 -0 -0 -0 -1 -0 -0 -0 -0 -0 -0 -1 -0 -0 -0 -0 -0 -0
-0 -0 -0 -0 -0 -0 -0 -0 -0 -0 -0 -0 -0 -0 -0 -0 -0 -0 -0 -0 -0 -0 -0 -0 -0 -0 -0 -0 -0 -0 -0 -0 -0 -0 -0 -0 -0 -1 -0 -0 -0 -0 -0
-0 -0 -0 -0 -0 -0 -0 -0 -0 -0 -0 -0 -0 -0 -0 -0 -0 -0 -0 -0 -0 -0 -0 -0 -0 -0 -0 -0 -0 -0 -0 -0 -0 -2 -0 -0 -0 -0 -0 -0 -0 -0 -0
-0 -0 -0 -0 -0 -0 -0 -0 -0 -1 -1 -1 -1 -1 -0 -1 -2 -0 -0 -0 -0 -0 -0 -0 -1 -1 -0 -0 -0 -0 -0 -0 -0 -0 -0 -0 -0 -0 -0 -0 -0 -0 -0
-0 -0 -0 -0 -1 -1 -1 -1 -1 -1 -1 -0 -0 -1 -0 -0 -0 -0 -1 -0 -1 -0 -1 -0 -0 -2 -0 -0 -0 -0 -1 -1 -0 -0 -0 -0 -0 -0 -0 -0 -0 -0 -0
-1 -2 -0 -0 -0 -1 -0 -0 -0 -1 -0 -0 -1 -1 -1 -1 -0 -0 -0 -1 -1 -0 -0 -1 -3 -3 -3 -0 -0 -0 -0 -0 -1 -0 -0 -0 -0 -0 -0 -0 -0 -0 -0
-1 -1 -1 -1 -0 -0 -1 -0 -2 -1 -0 -1 -0 -1 -0 -0 -1 -1 -0 -1 -0 -1 -0 -0 -0 -0 -1 -0 -0 -0 -1 -1 -1 -1 -1 -1 -1 -2 -0 -1 -0 -0 -0
-1 -1 -1 -0 -2 -0 -0 -0 -0 -1 -0 -1 -0 -0 -0 -1 -1 -0 -0 -0 -0 -0 -0 -0 -0 -0 -0 -0 -0 -0 -0 -0 -0 -0 -0 -4 -7 -1 -1 -0 -0 -0 -0
-1 -0 -1 -1 -1 -0 -0 -2 -0 -1 -0 -1 -1 -0 -1 -1 -1 -1 -1 -0 -0 -0 -0 -0 -0 -0 -0 -0 -0 -0 -0 -0 -0 -0 -0 -0 -0 -1 -1 -0 -1 -0 -1
-0 -0 -0 -0 -0 -0 -0 -0 -0 -0 -1 -1 -1 -1 -0 -0 -1 -0 -1 -0 -0 -0 -0 -1 -0 -0 -1 -0 -0 -0 -0 -0 -0 -0 -0 -0 -0 -0 -0 -2 -4 -0 -0
-0 -0 -0 -0 -0 -0 -0 -0 -0 -0 -0 -0 -0 -0 -0 -0 -0 -0 -0 -0 -0 -0 -0 -1 -1 -1 -1 -1 -0 -0 -0 -0 -0 -0 -0 -0 -0 -0 -0 -0 -0 -0 -0
-0 -0 -0 -0 -0 -0 -0 -0 -0 -0 -0 -0 -0 -0 -0 -0 -0 -0 -0 -0 -0 -0 -0 -0 -1 -2 -1 -1 -1 -1 -2 -2 -0 -1 -0 -0 -0 -0 -0 -0 -0 -0 -1
-0 -0 -0 -0 -0 -0 -0 -0 -0 -0 -0 -0 -0 -0 -0 -0 -0 -0 -0 -0 -0 -0 -0 -0 -0 -0 -2 -1 -0 -0 -1 -1 -1 -0 -0 -0 -0 -0 -0 -0 -0 -0 -0
-0 -0 -0 -0 -0 -0 -0 -0 -0 -0 -0 -0 -0 -0 -0 -0 -0 -0 -0 -0 -0 -0 -0 -0 -0 -0 -1 -1 -1 -0 -0 -3 -1 -2 -0 -0 -0 -0 -0 -0 -0 -0 -0
-0 -0 -0 -0 -0 -0 -0 -0 -0 -0 -0 -0 -0 -0 -0 -0 -0 -0 -0 -0 -0 -0 -0 -0 -0 -0 -1 -1 -1 -1 -1 -0 -1 -0 -0 -1 -0 -0 -0 -0 -0 -0 -0
-0 -0 -0 -0 -0 -0 -0 -0 -0 -0 -0 -0 -0 -0 -0 -0 -0 -0 -0 -0 -0 -0 -0 -0 -0 -0 -1 -1 -0 -1 -1 -1 -1 -0 -0 -0 -0 -0 -0 -0 -0 -0 -0
-0 -0 -0 -0 -0 -0 -0 -0 -0 -0 -0 -0 -0 -0 -0 -0 -0 -0 -0 -0 -0 -0 -0 -0 -0 -0 -0 -1 -1 -0 -0 -0 -0 -0 -0 -0 -0 -0 -0 -0 -0 -0 -0
-0 -0 -0 -0 -0 -0 -0 -0 -0 -0 -0 -0 -0 -0 -0 -0 -0 -0 -0 -0 -0 -0 -0 -0 -0 -0 -0 -0 -1 -0 -0 -0 -0 -0 -0 -0 -0 -0 -0 -0 -0 -0 -0
-0 -0 -0 -0 -0 -0 -0 -0 -0 -0 -0 -0 -0 -0 -0 -0 -0 -0 -0 -0 -0 -0 -0 -0 -0 -0 -0 -1 -1 -1 -1 -0 -0 -0 -0 -0 -0 -1 -1 -0 -0 -0 -0
-0 -0 -0 -0 -0 -0 -0 -0 -0 -0 -0 -0 -0 -0 -0 -0 -0 -0 -0 -0 -0 -0 -0 -0 -0 -0 -0 -0 -0 -1 -1 -0 -0 -0 -0 -0 -0 -0 -0 -0 -0 -0 -0
Wind_Speed
24 24 24 24 24 24 25 25 26 26 26 26 27 27 27 28 28 29 31 32 32 33 32 31 31 31 32 32 32 32 35 36 44 43 40 38 37 36 33 31 31 30 29
27 27 26 26 27 27 27 28 28 28 28 28 28 27 27 27 28 28 30 31 32 34 34 35 35 33 33 33 34 35 36 36 42 50 43 41 40 37 38 39 36 34 33
30 30 29 29 30 30 30 30 30 30 30 29 29 30 29 29 29 28 29 29 31 33 34 35 35 35 35 34 34 36 37 38 40 45 48 42 41 38 38 38 39 38 36
32 32 32 32 32 32 32 32 32 32 32 32 31 31 31 31 30 31 31 32 31 31 32 33 34 35 36 37 37 37 37 39 40 43 45 46 44 41 40 41 42 38 41
35 35 34 35 35 35 35 35 35 34 34 34 34 33 33 33 32 34 35 35 35 34 33 32 32 33 35 37 38 38 38 39 40 42 44 45 45 44 43 42 44 43 43
37 37 37 37 37 37 38 38 38 38 37 37 37 37 37 35 36 37 37 37 37 36 36 35 34 34 34 34 36 38 40 42 42 43 44 44 45 44 44 45 47 47 50
38 38 39 39 39 39 39 39 40 40 40 40 39 39 39 38 38 40 40 39 38 37 37 37 37 35 36 36 36 37 37 38 40 44 48 46 46 43 44 45 45 47 49
39 39 40 41 41 41 40 41 41 40 40 40 40 40 40 39 40 41 41 39 38 38 38 38 38 38 37 38 41 41 40 40 39 38 41 45 46 45 44 45 47 49 48
40 41 41 42 42 42 42 41 40 41 40 40 39 40 39 39 39 39 40 39 39 40 39 38 39 39 39 41 44 44 44 43 40 40 42 44 47 47 44 45 47 48 53
41 42 42 41 40 40 40 40 39 38 38 37 38 37 37 37 36 39 41 41 42 42 42 42 41 40 42 45 45 45 47 46 46 46 46 45 43 43 42 42 44 47 49
40 39 38 37 37 36 36 35 35 35 34 34 35 34 34 35 36 37 39 39 41 43 43 43 42 43 45 47 48 47 48 49 51 50 49 48 46 45 44 41 41 44 47
37 35 35 34 33 32 32 31 30 30 30 31 31 31 32 34 35 37 39 40 41 42 43 42 42 47 49 48 48 47 48 50 48 48 48 48 48 47 45 44 44 44 43
32 31 30 28 28 27 27 27 26 27 27 27 28 29 30 31 33 35 37 38 38 39 41 44 46 46 44 44 43 46 46 44 45 47 48 49 48 48 48 48 47 47 47
28 27 26 25 25 24 23 23 23 25 25 26 27 28 29 31 33 34 35 35 37 37 37 35 35 38 39 39 40 40 40 41 44 46 47 47 46 47 48 47 49 48 49
23 23 23 22 22 22 22 23 23 24 25 26 27 28 30 32 34 35 36 35 36 36 34 33 35 36 37 39 39 40 41 42 43 46 47 48 48 48 48 47 48 48 51
19 19 20 20 21 22 22 22 23 24 25 26 28 30 30 32 34 35 36 34 36 35 33 35 36 37 38 39 40 41 40 42 42 44 45 46 48 49 49 48 47 48 52
17 18 19 20 22 23 23 23 24 24 24 26 28 30 32 33 35 36 37 35 35 35 35 36 36 37 38 39 40 40 42 42 42 43 45 46 48 49 51 52 51 51 52
18 20 20 21 22 23 24 24 25 26 27 28 29 31 33 34 35 37 38 36 37 37 37 38 38 38 39 40 40 41 42 42 42 43 44 45 46 48 50 50 52 53 54
17 17 19 20 21 23 24 24 25 26 28 29 30 32 35 36 36 37 38 37 38 39 39 39 39 40 40 40 41 41 42 42 43 44 44 45 46 47 49 50 52 53 54
16 16 17 18 19 21 23 24 26 27 28 30 32 34 36 37 37 38 38 38 39 39 39 40 40 40 41 41 42 42 43 43 44 44 45 46 46 47 48 50 50 52 52
15 16 17 17 18 19 21 23 24 26 28 30 32 33 36 37 38 39 39 39 39 40 40 41 41 41 41 42 43 44 44 44 45 46 47 47 47 48 48 48 48 49 50
14 15 16 17 17 19 20 21 23 25 27 29 31 33 35 35 36 37 38 38 39 39 39 40 41 41 41 42 43 44 45 45 46 48 49 49 49 49 49 49 49 49 49
14 14 15 16 17 18 19 21 23 25 27 29 30 32 34 35 35 36 36 36 37 37 38 39 40 41 40 42 42 43 44 45 47 49 50 50 51 49 49 50 50 51 50
14 15 16 16 16 18 20 21 22 23 25 27 29 31 32 33 33 34 35 35 36 36 37 38 39 40 41 42 42 42 42 45 48 49 51 50 51 49 50 50 50 51 52
16 15 16 17 19 20 20 20 21 23 25 27 29 30 31 32 32 33 33 34 35 36 38 38 38 39 41 42 43 44 45 49 49 51 49 50 50 50 50 50 51 51 52
17 17 17 19 20 20 20 21 22 24 26 27 29 30 31 31 31 32 33 34 35 37 39 38 38 41 43 42 42 44 49 49 49 51 49 48 49 49 50 51 51 52 51
Wind_Direction
337 337 336 334 332 331 327 326 323 321 319 317 315 312 308 303 298 293 289 287 285 284 285 285 285 285 282 281 280 279 276 274 271 272 274 277 278 279 281 283 283 284 284
326 325 326 325 325 324 323 322 323 320 320 317 316 315 314 312 308 302 296 292 288 285 285 283 283 284 283 282 281 279 278 277 274 269 274 277 278 280 280 281 282 282 282
320 319 318 318 318 317 317 317 318 317 316 317 315 311 311 311 310 310 307 302 295 291 289 286 285 284 283 283 282 280 280 279 278 276 275 278 279 281 281 282 282 282 282
315 315 315 314 314 314 313 313 313 314 313 312 312 310 309 309 309 308 306 303 302 300 297 293 290 287 285 284 283 282 282 281 280 279 278 278 279 280 280 281 283 283 283
310 310 310 311 310 310 310 309 309 309 309 310 309 308 308 307 307 306 304 301 300 299 300 299 297 294 291 288 286 284 283 282 282 282 281 281 280 280 279 281 282 284 283
309 307 308 309 309 308 307 306 305 305 304 304 304 304 304 304 304 305 304 301 299 298 298 298 299 299 297 295 291 287 284 283 282 282 283 283 283 283 283 282 282 282 283
309 308 308 307 307 307 307 306 305 303 303 303 302 302 301 301 303 302 301 299 298 298 298 298 298 299 300 299 297 294 291 287 283 282 282 283 284 286 286 285 283 282 282
310 309 308 307 306 306 306 305 304 304 304 303 303 303 302 302 303 302 301 299 297 297 297 298 297 297 299 299 297 295 293 292 290 289 285 285 285 286 286 285 285 285 285
310 309 309 308 306 305 305 305 305 304 303 303 304 304 303 303 304 304 304 300 298 296 296 297 297 297 298 299 297 294 292 292 293 291 289 288 287 286 287 287 285 285 283
311 310 310 309 308 307 307 306 306 306 305 306 305 306 306 306 308 307 306 302 298 298 297 296 297 297 297 297 296 295 292 292 292 292 291 291 290 289 288 284 284 283 285
314 313 313 313 312 312 312 312 311 311 310 310 309 309 309 311 311 312 311 307 303 301 298 297 296 297 298 297 295 293 292 293 291 291 290 290 290 289 288 287 285 282 283
318 318 318 318 318 318 318 319 320 320 318 318 317 316 317 316 315 314 312 309 307 303 300 300 299 299 297 297 296 294 294 294 293 291 290 290 290 290 289 288 286 285 284
322 323 324 329 330 331 328 327 328 330 328 328 327 326 326 328 326 324 322 319 316 311 306 301 299 300 303 300 300 299 298 297 295 293 291 291 291 292 291 290 288 286 285
328 331 334 337 340 343 344 344 343 341 339 338 336 334 333 332 335 334 332 330 327 323 320 319 315 311 310 308 307 307 306 304 301 297 295 294 295 294 292 291 290 289 286
338 340 343 348 349 350 353 353 351 352 349 346 344 342 339 337 338 339 338 337 336 333 331 329 324 321 317 314 312 310 309 307 305 302 300 299 296 296 293 293 291 290 287
338 341 346 347 350 352 352 352 357 354 353 353 352 350 346 344 343 342 341 340 340 339 336 332 329 326 323 320 316 313 313 311 309 306 304 302 300 300 296 295 293 291 289
308 321 331 338 343 345 347 347 345 347 349 349 347 346 346 343 343 342 341 341 341 340 338 334 331 329 328 326 324 320 317 314 314 310 307 305 302 301 298 297 293 291 289
356 2 3 1 356 351 349 349 349 346 344 345 347 346 345 344 343 342 342 342 341 341 338 335 332 331 329 327 326 324 322 320 318 315 312 310 307 304 300 299 296 296 291
6 13 14 17 12 4 357 353 351 349 348 348 348 348 346 345 344 344 344 343 340 338 337 336 334 332 330 328 326 325 323 322 321 319 317 315 312 308 304 302 299 297 295
4 10 16 20 19 12 4 357 352 349 348 346 345 345 344 344 344 344 343 342 341 339 337 335 334 332 330 329 328 327 325 322 321 320 318 317 316 313 309 306 304 300 296
4 7 11 15 14 11 7 3 0 357 353 350 348 347 345 343 342 341 341 340 339 337 336 334 332 331 330 328 327 325 323 321 321 320 318 317 316 314 312 311 309 306 302
356 360 5 7 7 6 4 3 2 359 356 352 351 350 348 347 345 343 342 340 339 338 336 334 333 332 331 330 328 325 323 321 320 319 316 315 314 314 313 311 310 309 307
350 354 356 358 359 359 359 357 356 355 354 352 351 350 350 348 347 345 343 342 341 339 338 337 334 332 332 331 329 327 324 323 321 319 316 314 313 313 312 310 309 309 308
343 345 347 350 350 349 349 350 351 351 350 350 349 349 349 348 347 345 343 341 339 338 338 336 334 333 332 331 330 329 327 324 321 320 318 315 313 311 311 309 308 307 308
334 337 340 340 338 340 343 346 346 347 347 346 345 345 345 345 345 343 341 339 337 336 335 334 334 333 332 329 328 327 326 322 321 319 320 316 314 311 309 308 306 306 306
328 329 330 330 330 335 337 338 339 340 341 341 340 340 340 341 341 340 339 337 335 333 332 332 331 330 329 329 329 327 323 321 322 320 321 322 316 313 311 307 306 305 304